| time (UTC) | temp F | wind direction | speed knots | gust knots | rain 1hr in | rain 24hr in | rain mn in | humidity % | barometer mb |
| 20260509075717 | 102 | 0 | 0.0 | 2.6 | 0.00 | 0.00 | 0.00 | 24 | 1007.8 |
| 20260509075130 | 102 | 45 | 0.0 | 2.6 | 0.00 | 0.00 | 0.00 | 24 | 1007.9 |
| 20260509074543 | 103 | 180 | 0.0 | 2.6 | 0.00 | 0.00 | 0.00 | 23 | 1007.9 |
| 20260509073956 | 103 | 270 | 0.0 | 1.7 | 0.00 | 0.00 | 0.00 | 23 | 1007.7 |
| 20260509073409 | 103 | 90 | 0.0 | 2.6 | 0.00 | 0.00 | 0.00 | 23 | 1007.7 |
| 20260509072822 | 104 | 45 | 0.0 | 2.6 | 0.00 | 0.00 | 0.00 | 23 | 1007.9 |
| 20260509072235 | 104 | 45 | 0.0 | 2.6 | 0.00 | 0.00 | 0.00 | 23 | 1008.0 |
| 20260509071648 | 104 | 270 | 0.0 | 1.7 | 0.00 | 0.00 | 0.00 | 23 | 1008.0 |
| 20260509071101 | 105 | 270 | 0.0 | 2.6 | 0.00 | 0.00 | 0.00 | 22 | 1008.0 |
| 20260509070514 | 105 | 225 | 0.0 | 2.6 | 0.00 | 0.00 | 0.00 | 22 | 1008.0 |
| 20260509065927 | 105 | 90 | 0.0 | 1.7 | 0.00 | 0.00 | 0.00 | 23 | 1008.0 |
| 20260509064753 | 105 | 315 | 0.0 | 2.6 | 0.00 | 0.00 | 0.00 | 23 | 1008.2 |
| 20260509064206 | 105 | 0 | 0.0 | 2.6 | 0.00 | 0.00 | 0.00 | 23 | 1008.0 |
| 20260509063619 | 106 | 45 | 0.0 | 1.7 | 0.00 | 0.00 | 0.00 | 23 | 1008.1 |
| 20260509063032 | 106 | 270 | 0.0 | 1.7 | 0.00 | 0.00 | 0.00 | 23 | 1008.1 |
| 20260509062445 | 105 | 315 | 0.0 | 2.6 | 0.00 | 0.00 | 0.00 | 23 | 1008.2 |
| 20260509061858 | 105 | 225 | 0.0 | 2.6 | 0.00 | 0.00 | 0.00 | 23 | 1008.3 |
| 20260509061311 | 106 | 90 | 0.0 | 2.6 | 0.00 | 0.00 | 0.00 | 22 | 1008.2 |
| 20260509060724 | 106 | 315 | 0.0 | 1.7 | 0.00 | 0.00 | 0.00 | 22 | 1008.1 |
| 20260509060137 | 106 | 45 | 0.0 | 1.7 | 0.00 | 0.00 | 0.00 | 22 | 1008.2 |
| 20260509055550 | 107 | 45 | 0.0 | 2.6 | 0.00 | 0.00 | 0.00 | 22 | 1008.3 |
| 20260509055003 | 107 | 225 | 0.0 | 2.6 | 0.00 | 0.00 | 0.00 | 22 | 1008.2 |
| 20260509054416 | 107 | 315 | 0.0 | 2.6 | 0.00 | 0.00 | 0.00 | 22 | 1008.2 |
| 20260509053829 | 107 | 0 | 0.0 | 2.6 | 0.00 | 0.00 | 0.00 | 21 | 1008.3 |
| 20260509053242 | 108 | 90 | 0.0 | 2.6 | 0.00 | 0.00 | 0.00 | 21 | 1008.2 |
| 20260509052655 | 108 | 45 | 0.9 | 2.6 | 0.00 | 0.00 | 0.00 | 21 | 1008.3 |
| 20260509052108 | 108 | 45 | 0.0 | 2.6 | 0.00 | 0.00 | 0.00 | 21 | 1008.4 |
| 20260509051521 | 108 | 270 | 0.0 | 1.7 | 0.00 | 0.00 | 0.00 | 21 | 1008.4 |
| 20260509050934 | 108 | 270 | 0.0 | 2.6 | 0.00 | 0.00 | 0.00 | 21 | 1008.4 |
| 20260509050347 | 108 | 90 | 0.0 | 2.6 | 0.00 | 0.00 | 0.00 | 21 | 1008.4 |
| 20260509045800 | 108 | 315 | 0.0 | 2.6 | 0.00 | 0.00 | 0.00 | 22 | 1008.5 |
| 20260509045213 | 108 | 225 | 0.0 | 2.6 | 0.00 | 0.00 | 0.00 | 22 | 1008.4 |
| 20260509044626 | 108 | 315 | 0.0 | 2.6 | 0.00 | 0.00 | 0.00 | 22 | 1008.4 |
| 20260509044038 | 107 | 45 | 0.0 | 1.7 | 0.00 | 0.00 | 0.00 | 22 | 1008.6 |
| 20260509043452 | 107 | 315 | 0.0 | 1.7 | 0.00 | 0.00 | 0.00 | 22 | 1008.4 |
| 20260509042905 | 107 | 0 | 0.0 | 1.7 | 0.00 | 0.00 | 0.00 | 22 | 1008.6 |
| 20260509042317 | 107 | 45 | 0.0 | 2.6 | 0.00 | 0.00 | 0.00 | 22 | 1008.7 |
| 20260509041730 | 107 | 270 | 0.0 | 2.6 | 0.00 | 0.00 | 0.00 | 22 | 1008.9 |
| 20260509041143 | 107 | 90 | 0.0 | 2.6 | 0.00 | 0.00 | 0.00 | 23 | 1008.8 |
| 20260509040556 | 107 | 0 | 0.0 | 1.7 | 0.00 | 0.00 | 0.00 | 23 | 1009.0 |
| 20260509040009 | 107 | 180 | 0.0 | 2.6 | 0.00 | 0.00 | 0.00 | 23 | 1009.0 |
| 20260509035422 | 106 | 270 | 0.0 | 2.6 | 0.00 | 0.00 | 0.00 | 23 | 1009.1 |
| 20260509034835 | 106 | 315 | 0.0 | 2.6 | 0.00 | 0.00 | 0.00 | 23 | 1009.5 |
| 20260509034248 | 106 | 315 | 0.0 | 2.6 | 0.00 | 0.00 | 0.00 | 23 | 1009.2 |
| 20260509033701 | 106 | 225 | 0.0 | 2.6 | 0.00 | 0.00 | 0.00 | 23 | 1009.5 |
| 20260509033114 | 106 | 0 | 0.0 | 2.6 | 0.00 | 0.00 | 0.00 | 23 | 1009.5 |
| 20260509032527 | 106 | 0 | 0.0 | 2.6 | 0.00 | 0.00 | 0.00 | 23 | 1009.6 |
| 20260509031940 | 106 | 270 | 0.0 | 2.6 | 0.00 | 0.00 | 0.00 | 23 | 1009.6 |
| 20260509031353 | 106 | 270 | 0.0 | 5.2 | 0.00 | 0.00 | 0.00 | 24 | 1009.6 |
| 20260509030806 | 106 | 225 | 0.0 | 2.6 | 0.00 | 0.00 | 0.00 | 24 | 1009.6 |
| 20260509030219 | 105 | 45 | 0.0 | 2.6 | 0.00 | 0.00 | 0.00 | 24 | 1009.7 |
| 20260509025632 | 105 | 45 | 0.0 | 2.6 | 0.00 | 0.00 | 0.00 | 24 | 1009.6 |
| 20260509025045 | 105 | 225 | 0.0 | 1.7 | 0.00 | 0.00 | 0.00 | 24 | 1009.7 |
| 20260509024458 | 105 | 225 | 0.0 | 2.6 | 0.00 | 0.00 | 0.00 | 24 | 1009.7 |
| 20260509023911 | 105 | 45 | 0.0 | 2.6 | 0.00 | 0.00 | 0.00 | 25 | 1009.8 |
| 20260509023324 | 105 | 270 | 0.0 | 2.6 | 0.00 | 0.00 | 0.00 | 25 | 1009.9 |
| 20260509022737 | 104 | 225 | 0.0 | 2.6 | 0.00 | 0.00 | 0.00 | 25 | 1009.8 |
| 20260509022150 | 104 | 315 | 0.0 | 1.7 | 0.00 | 0.00 | 0.00 | 25 | 1009.8 |
| 20260509021603 | 104 | 315 | 0.0 | 1.7 | 0.00 | 0.00 | 0.00 | 26 | 1009.9 |
| 20260509021016 | 103 | 0 | 0.0 | 1.7 | 0.00 | 0.00 | 0.00 | 26 | 1009.9 |
| 20260509020429 | 103 | 315 | 0.0 | 1.7 | 0.00 | 0.00 | 0.00 | 26 | 1009.9 |
| 20260509015842 | 102 | 0 | 0.0 | 0.9 | 0.00 | 0.00 | 0.00 | 26 | 1010.1 |
| 20260509015255 | 102 | 0 | 0.0 | 1.7 | 0.00 | 0.00 | 0.00 | 26 | 1010.1 |
| 20260509014708 | 102 | 45 | 0.0 | 1.7 | 0.00 | 0.00 | 0.00 | 27 | 1010.2 |
| 20260509014121 | 101 | 270 | 0.0 | 2.6 | 0.00 | 0.00 | 0.00 | 27 | 1010.3 |
| 20260509013533 | 101 | 270 | 0.0 | 2.6 | 0.00 | 0.00 | 0.00 | 28 | 1010.2 |
| 20260509012947 | 100 | 90 | 0.0 | 2.6 | 0.00 | 0.00 | 0.00 | 28 | 1010.4 |
| 20260509012359 | 100 | 45 | 0.0 | 1.7 | 0.00 | 0.00 | 0.00 | 28 | 1010.4 |
| 20260509011812 | 100 | 315 | 0.0 | 1.7 | 0.00 | 0.00 | 0.00 | 29 | 1010.3 |
| 20260509011225 | 99 | 315 | 0.0 | 2.6 | 0.00 | 0.00 | 0.00 | 29 | 1010.3 |
| 20260509010638 | 98 | 45 | 0.0 | 2.6 | 0.00 | 0.00 | 0.00 | 29 | 1010.2 |
| 20260509010051 | 98 | 90 | 0.0 | 1.7 | 0.00 | 0.00 | 0.00 | 30 | 1010.1 |
| 20260509005504 | 97 | 225 | 0.0 | 1.7 | 0.00 | 0.00 | 0.00 | 31 | 1010.2 |
| 20260509004917 | 97 | 315 | 0.0 | 1.7 | 0.00 | 0.00 | 0.00 | 31 | 1010.0 |
| 20260509004330 | 96 | 0 | 0.0 | 2.6 | 0.00 | 0.00 | 0.00 | 31 | 1009.8 |
| 20260509003743 | 96 | 315 | 0.0 | 2.6 | 0.00 | 0.00 | 0.00 | 32 | 1009.8 |
| 20260509003156 | 95 | 270 | 0.0 | 2.6 | 0.00 | 0.00 | 0.00 | 33 | 1009.8 |
| 20260509002609 | 95 | 45 | 0.0 | 1.7 | 0.00 | 0.00 | 0.00 | 34 | 1009.9 |
| 20260509002022 | 94 | 0 | 0.0 | 2.6 | 0.00 | 0.00 | 0.00 | 34 | 1009.8 |
| 20260509001435 | 93 | 315 | 0.0 | 2.6 | 0.00 | 0.00 | 0.00 | 34 | 1009.9 |
| 20260509000848 | 93 | 315 | 0.0 | 1.7 | 0.00 | 0.00 | 0.00 | 36 | 1009.8 |
| 20260509000303 | 92 | 45 | 0.0 | 1.7 | 0.00 | 0.00 | 0.00 | 36 | 1009.8 |
| 20260508235714 | 91 | 315 | 0.0 | 1.7 | 0.00 | 0.00 | 0.00 | 37 | 1009.7 |
| 20260508235127 | 91 | 0 | 0.0 | 2.6 | 0.00 | 0.00 | 0.00 | 37 | 1009.6 |
| 20260508234540 | 90 | 315 | 0.0 | 1.7 | 0.00 | 0.00 | 0.00 | 38 | 1009.7 |
| 20260508233953 | 89 | 270 | 0.0 | 2.6 | 0.00 | 0.00 | 0.00 | 39 | 1009.6 |
| 20260508233406 | 89 | 0 | 0.9 | 2.6 | 0.00 | 0.00 | 0.00 | 40 | 1009.6 |
| 20260508232819 | 88 | 45 | 0.0 | 1.7 | 0.00 | 0.00 | 0.00 | 40 | 1009.6 |
| 20260508232232 | 88 | 315 | 0.0 | 1.7 | 0.00 | 0.00 | 0.00 | 40 | 1009.7 |
| 20260508231645 | 87 | 270 | 0.0 | 0.9 | 0.00 | 0.00 | 0.00 | 41 | 1009.6 |
| 20260508231058 | 87 | 225 | 0.0 | 0.9 | 0.00 | 0.00 | 0.00 | 41 | 1009.5 |
| 20260508230511 | 87 | 0 | 0.0 | 0.9 | 0.00 | 0.00 | 0.00 | 41 | 1009.6 |
| 20260508225924 | 86 | 0 | 0.0 | 1.7 | 0.00 | 0.00 | 0.00 | 42 | 1009.6 |
| 20260508225337 | 86 | 45 | 0.0 | 1.7 | 0.00 | 0.00 | 0.00 | 42 | 1009.4 |
| 20260508224750 | 86 | 315 | 0.0 | 0.9 | 0.00 | 0.00 | 0.00 | 42 | 1009.4 |
| 20260508224203 | 85 | 315 | 0.0 | 1.7 | 0.00 | 0.00 | 0.00 | 42 | 1009.3 |
| 20260508223616 | 85 | 315 | 0.0 | 1.7 | 0.00 | 0.00 | 0.00 | 42 | 1009.3 |
| 20260508223029 | 85 | 0 | 0.0 | 1.7 | 0.00 | 0.00 | 0.00 | 42 | 1009.3 |
| 20260508222441 | 85 | 90 | 0.0 | 1.7 | 0.00 | 0.00 | 0.00 | 42 | 1009.3 |
| 20260508221855 | 85 | 90 | 0.0 | 0.9 | 0.00 | 0.00 | 0.00 | 42 | 1009.3 |
| 20260508221308 | 85 | 45 | 0.0 | 1.7 | 0.00 | 0.00 | 0.00 | 42 | 1009.3 |
| 20260508220721 | 85 | 0 | 0.0 | 1.7 | 0.00 | 0.00 | 0.00 | 41 | 1009.2 |
| 20260508220133 | 85 | 315 | 0.0 | 2.6 | 0.00 | 0.00 | 0.00 | 41 | 1009.3 |
| 20260508215546 | 85 | 315 | 0.0 | 2.6 | 0.00 | 0.00 | 0.00 | 41 | 1009.3 |
| 20260508214959 | 85 | 0 | 0.0 | 1.7 | 0.00 | 0.00 | 0.00 | 41 | 1009.3 |
| 20260508214412 | 85 | 315 | 0.0 | 1.7 | 0.00 | 0.00 | 0.00 | 41 | 1009.3 |
| 20260508213825 | 85 | 0 | 0.0 | 1.7 | 0.00 | 0.00 | 0.00 | 41 | 1009.1 |
| 20260508213238 | 85 | 315 | 0.0 | 1.7 | 0.00 | 0.00 | 0.00 | 41 | 1009.0 |
| 20260508212652 | 85 | 0 | 0.0 | 1.7 | 0.00 | 0.00 | 0.00 | 41 | 1008.9 |
| 20260508212104 | 85 | 315 | 0.0 | 0.9 | 0.00 | 0.00 | 0.00 | 41 | 1008.8 |
| 20260508211517 | 85 | 270 | 0.0 | 1.7 | 0.00 | 0.00 | 0.00 | 41 | 1008.7 |
| 20260508210930 | 85 | 315 | 0.0 | 1.7 | 0.00 | 0.00 | 0.00 | 41 | 1008.7 |
| 20260508210343 | 85 | 315 | 0.0 | 0.9 | 0.00 | 0.00 | 0.00 | 41 | 1008.9 |
| 20260508205756 | 85 | 315 | 0.0 | 1.7 | 0.00 | 0.00 | 0.00 | 41 | 1008.5 |
| 20260508205209 | 85 | 0 | 0.0 | 1.7 | 0.00 | 0.00 | 0.00 | 41 | 1008.7 |
| 20260508204622 | 85 | 315 | 0.0 | 2.6 | 0.00 | 0.00 | 0.00 | 41 | 1008.7 |
| 20260508204035 | 85 | 315 | 0.0 | 2.6 | 0.00 | 0.00 | 0.00 | 41 | 1008.7 |
| 20260508203448 | 85 | 315 | 0.0 | 0.9 | 0.00 | 0.00 | 0.00 | 41 | 1008.6 |
| 20260508202901 | 85 | 270 | 0.0 | 0.0 | 0.00 | 0.00 | 0.00 | 41 | 1008.5 |
| 20260508202314 | 85 | 0 | 0.0 | 0.0 | 0.00 | 0.00 | 0.00 | 41 | 1008.3 |
| 20260508201727 | 85 | 315 | 0.0 | 0.0 | 0.00 | 0.00 | 0.00 | 41 | 1008.2 |
| 20260508201140 | 86 | 315 | 0.0 | 0.0 | 0.00 | 0.00 | 0.00 | 41 | 1008.0 |
| 20260508200553 | 86 | 270 | 0.0 | 0.9 | 0.00 | 0.00 | 0.00 | 41 | 1007.9 |
| 20260508200006 | 86 | 180 | 0.0 | 1.7 | 0.00 | 0.00 | 0.00 | 41 | 1008.1 |
| 20260508195419 | 86 | 315 | 0.0 | 1.7 | 0.00 | 0.00 | 0.00 | 41 | 1008.0 |
| 20260508194832 | 86 | 270 | 0.0 | 1.7 | 0.00 | 0.00 | 0.00 | 41 | 1008.1 |
| 20260508194245 | 86 | 270 | 0.0 | 0.0 | 0.00 | 0.00 | 0.00 | 41 | 1008.2 |
| 20260508193658 | 86 | 270 | 0.0 | 0.0 | 0.00 | 0.00 | 0.00 | 41 | 1008.0 |
| 20260508193111 | 86 | 270 | 0.0 | 0.0 | 0.00 | 0.00 | 0.00 | 40 | 1007.8 |
| 20260508192524 | 86 | 90 | 0.0 | 0.0 | 0.00 | 0.00 | 0.00 | 40 | 1007.9 |
| 20260508191937 | 86 | 315 | 0.0 | 0.0 | 0.00 | 0.00 | 0.00 | 40 | 1007.9 |
| 20260508191350 | 86 | 45 | 0.0 | 0.0 | 0.00 | 0.00 | 0.00 | 40 | 1008.0 |
| 20260508190803 | 86 | 315 | 0.0 | 0.9 | 0.00 | 0.00 | 0.00 | 40 | 1008.0 |
| 20260508190216 | 86 | 315 | 0.0 | 0.9 | 0.00 | 0.00 | 0.00 | 40 | 1008.1 |
| 20260508185629 | 86 | 315 | 0.0 | 0.9 | 0.00 | 0.00 | 0.00 | 40 | 1008.1 |
| 20260508185042 | 86 | 0 | 0.0 | 0.9 | 0.00 | 0.00 | 0.00 | 40 | 1008.2 |
| 20260508184455 | 86 | 45 | 0.0 | 0.9 | 0.00 | 0.00 | 0.00 | 40 | 1008.1 |
| 20260508183908 | 86 | 0 | 0.0 | 0.9 | 0.00 | 0.00 | 0.00 | 40 | 1008.3 |
| 20260508183321 | 86 | 0 | 0.0 | 0.9 | 0.00 | 0.00 | 0.00 | 40 | 1008.4 |
| 20260508182733 | 86 | 90 | 0.0 | 0.9 | 0.00 | 0.00 | 0.00 | 40 | 1008.5 |
| 20260508182146 | 86 | 315 | 0.0 | 0.0 | 0.00 | 0.00 | 0.00 | 40 | 1008.6 |
| 20260508181559 | 86 | 270 | 0.0 | 0.0 | 0.00 | 0.00 | 0.00 | 40 | 1008.6 |
| 20260508181012 | 87 | 270 | 0.0 | 0.9 | 0.00 | 0.00 | 0.00 | 40 | 1008.7 |
| 20260508180425 | 87 | 315 | 0.0 | 0.9 | 0.00 | 0.00 | 0.00 | 40 | 1008.6 |
| 20260508175838 | 86 | 0 | 0.0 | 0.0 | 0.00 | 0.00 | 0.00 | 40 | 1008.7 |
| 20260508175251 | 87 | 315 | 0.0 | 0.0 | 0.00 | 0.00 | 0.00 | 40 | 1008.6 |
| 20260508174704 | 87 | 0 | 0.0 | 0.9 | 0.00 | 0.00 | 0.00 | 40 | 1008.6 |
| 20260508174117 | 87 | 315 | 0.0 | 0.9 | 0.00 | 0.00 | 0.00 | 40 | 1008.5 |
| 20260508173530 | 87 | 0 | 0.0 | 0.9 | 0.00 | 0.00 | 0.00 | 40 | 1008.4 |
| 20260508172943 | 87 | 315 | 0.0 | 0.9 | 0.00 | 0.00 | 0.00 | 40 | 1008.6 |
| 20260508172356 | 87 | 0 | 0.0 | 0.9 | 0.00 | 0.00 | 0.00 | 40 | 1008.5 |
| 20260508171809 | 87 | 315 | 0.0 | 0.0 | 0.00 | 0.00 | 0.00 | 40 | 1008.6 |
| 20260508171222 | 87 | 315 | 0.0 | 0.9 | 0.00 | 0.00 | 0.00 | 40 | 1008.6 |
| 20260508170635 | 87 | 0 | 0.0 | 0.9 | 0.00 | 0.00 | 0.00 | 40 | 1008.6 |
| 20260508170048 | 87 | 315 | 0.0 | 0.9 | 0.00 | 0.00 | 0.00 | 40 | 1008.6 |
| 20260508165501 | 87 | 0 | 0.0 | 0.9 | 0.00 | 0.00 | 0.00 | 40 | 1008.6 |
| 20260508164914 | 87 | 315 | 0.0 | 0.0 | 0.00 | 0.00 | 0.00 | 40 | 1008.8 |
| 20260508164327 | 87 | 225 | 0.0 | 0.9 | 0.00 | 0.00 | 0.00 | 39 | 1008.9 |
| 20260508163740 | 87 | 315 | 0.0 | 0.9 | 0.00 | 0.00 | 0.00 | 40 | 1008.9 |
| 20260508163153 | 87 | 270 | 0.0 | 0.9 | 0.00 | 0.00 | 0.00 | 39 | 1008.9 |
| 20260508162606 | 87 | 315 | 0.0 | 0.9 | 0.00 | 0.00 | 0.00 | 39 | 1008.9 |
| 20260508162019 | 87 | 270 | 0.0 | 0.9 | 0.00 | 0.00 | 0.00 | 39 | 1009.1 |
| 20260508161432 | 87 | 315 | 0.0 | 0.9 | 0.00 | 0.00 | 0.00 | 39 | 1009.2 |
| 20260508160712 | 87 | 315 | 0.0 | 0.9 | 0.00 | 0.00 | 0.00 | 39 | 1009.1 |
| 20260508160125 | 87 | 315 | 0.0 | 0.9 | 0.00 | 0.00 | 0.00 | 39 | 1009.2 |
| 20260508155538 | 87 | 315 | 0.0 | 0.9 | 0.00 | 0.00 | 0.00 | 39 | 1009.2 |
| 20260508154951 | 87 | 225 | 0.0 | 0.9 | 0.00 | 0.00 | 0.00 | 39 | 1009.2 |
| 20260508154404 | 88 | 270 | 0.0 | 0.0 | 0.00 | 0.00 | 0.00 | 39 | 1009.3 |
| 20260508153817 | 88 | 270 | 0.0 | 0.9 | 0.00 | 0.00 | 0.00 | 39 | 1009.2 |
| 20260508153230 | 88 | 270 | 0.0 | 0.9 | 0.00 | 0.00 | 0.00 | 39 | 1009.3 |
| 20260508152642 | 88 | 270 | 0.0 | 0.9 | 0.00 | 0.00 | 0.00 | 39 | 1009.2 |
| 20260508152055 | 88 | 270 | 0.0 | 0.0 | 0.00 | 0.00 | 0.00 | 38 | 1009.3 |
| 20260508151508 | 88 | 315 | 0.0 | 0.9 | 0.00 | 0.00 | 0.00 | 38 | 1009.4 |
| 20260508150921 | 88 | 270 | 0.0 | 0.9 | 0.00 | 0.00 | 0.00 | 38 | 1009.5 |
| 20260508150334 | 88 | 315 | 0.0 | 0.9 | 0.00 | 0.00 | 0.00 | 38 | 1009.5 |
| 20260508145747 | 89 | 270 | 0.0 | 0.9 | 0.00 | 0.00 | 0.00 | 38 | 1009.6 |
| 20260508145200 | 89 | 225 | 0.0 | 0.9 | 0.00 | 0.00 | 0.00 | 38 | 1009.5 |
| 20260508144613 | 89 | 270 | 0.0 | 0.9 | 0.00 | 0.00 | 0.00 | 38 | 1009.6 |
| 20260508144026 | 89 | 270 | 0.0 | 0.0 | 0.00 | 0.00 | 0.00 | 38 | 1009.5 |
| 20260508143439 | 89 | 270 | 0.0 | 0.9 | 0.00 | 0.00 | 0.00 | 38 | 1009.5 |
| 20260508142852 | 89 | 270 | 0.0 | 0.9 | 0.00 | 0.00 | 0.00 | 37 | 1009.5 |
| 20260508142307 | 89 | 180 | 0.0 | 0.9 | 0.00 | 0.00 | 0.00 | 37 | 1009.4 |
| 20260508141718 | 89 | 270 | 0.0 | 0.9 | 0.00 | 0.00 | 0.00 | 37 | 1009.4 |
| 20260508141131 | 90 | 315 | 0.0 | 0.9 | 0.00 | 0.00 | 0.00 | 37 | 1009.4 |
| 20260508140544 | 90 | 270 | 0.0 | 0.9 | 0.00 | 0.00 | 0.00 | 37 | 1009.4 |
| 20260508135957 | 90 | 270 | 0.0 | 0.9 | 0.00 | 0.00 | 0.00 | 37 | 1009.4 |
| 20260508135410 | 90 | 315 | 0.0 | 1.7 | 0.00 | 0.00 | 0.00 | 37 | 1009.6 |
| 20260508134823 | 90 | 270 | 0.0 | 1.7 | 0.00 | 0.00 | 0.00 | 37 | 1009.4 |
| 20260508134236 | 90 | 315 | 0.0 | 0.9 | 0.00 | 0.00 | 0.00 | 37 | 1009.2 |
| 20260508133649 | 90 | 0 | 0.0 | 0.9 | 0.00 | 0.00 | 0.00 | 36 | 1009.1 |
| 20260508133102 | 91 | 0 | 0.0 | 0.9 | 0.00 | 0.00 | 0.00 | 37 | 1009.0 |
| 20260508132515 | 91 | 0 | 0.0 | 0.9 | 0.00 | 0.00 | 0.00 | 37 | 1009.0 |
| 20260508131928 | 91 | 315 | 0.0 | 0.9 | 0.00 | 0.00 | 0.00 | 37 | 1008.9 |
| 20260508131341 | 91 | 225 | 0.0 | 1.7 | 0.00 | 0.00 | 0.00 | 37 | 1009.1 |
| 20260508130754 | 91 | 315 | 0.0 | 1.7 | 0.00 | 0.00 | 0.00 | 37 | 1009.0 |
| 20260508130207 | 91 | 270 | 0.0 | 0.9 | 0.00 | 0.00 | 0.00 | 37 | 1009.0 |
| 20260508125620 | 91 | 315 | 0.0 | 0.9 | 0.00 | 0.00 | 0.00 | 37 | 1008.7 |
| 20260508125033 | 91 | 270 | 0.0 | 0.9 | 0.00 | 0.00 | 0.00 | 36 | 1008.6 |
| 20260508124446 | 92 | 0 | 0.0 | 1.7 | 0.00 | 0.00 | 0.00 | 36 | 1008.5 |
| 20260508123859 | 92 | 315 | 0.0 | 1.7 | 0.00 | 0.00 | 0.00 | 36 | 1008.5 |
| 20260508123312 | 92 | 225 | 0.0 | 1.7 | 0.00 | 0.00 | 0.00 | 36 | 1008.4 |
| 20260508122725 | 92 | 90 | 0.0 | 1.7 | 0.00 | 0.00 | 0.00 | 36 | 1008.2 |
| 20260508122138 | 92 | 270 | 0.0 | 1.7 | 0.00 | 0.00 | 0.00 | 36 | 1008.4 |
| 20260508121550 | 93 | 270 | 0.0 | 2.6 | 0.00 | 0.00 | 0.00 | 35 | 1008.2 |
| 20260508121003 | 93 | 270 | 0.0 | 2.6 | 0.00 | 0.00 | 0.00 | 35 | 1008.2 |
| 20260508120417 | 93 | 225 | 0.0 | 1.7 | 0.00 | 0.00 | 0.00 | 35 | 1008.2 |
| 20260508115829 | 93 | 315 | 0.0 | 0.9 | 0.00 | 0.00 | 0.00 | 35 | 1008.2 |
| 20260508115242 | 94 | 225 | 0.0 | 0.9 | 0.00 | 0.00 | 0.00 | 34 | 1008.1 |
| 20260508114655 | 94 | 315 | 0.0 | 1.7 | 0.00 | 0.00 | 0.00 | 34 | 1008.2 |
| 20260508114108 | 94 | 270 | 0.0 | 1.7 | 0.00 | 0.00 | 0.00 | 34 | 1007.9 |
| 20260508113521 | 94 | 270 | 0.0 | 1.7 | 0.00 | 0.00 | 0.00 | 34 | 1007.9 |
| 20260508112934 | 95 | 270 | 0.0 | 0.9 | 0.00 | 0.00 | 0.00 | 34 | 1007.9 |
| 20260508112347 | 95 | 315 | 0.0 | 0.9 | 0.00 | 0.00 | 0.00 | 33 | 1007.8 |
| 20260508111800 | 95 | 0 | 0.0 | 0.9 | 0.00 | 0.00 | 0.00 | 33 | 1007.8 |
| 20260508111213 | 95 | 0 | 0.0 | 0.9 | 0.00 | 0.00 | 0.00 | 33 | 1007.8 |
| 20260508110626 | 95 | 270 | 0.0 | 0.9 | 0.00 | 0.00 | 0.00 | 32 | 1007.5 |
| 20260508110039 | 96 | 270 | 0.0 | 0.9 | 0.00 | 0.00 | 0.00 | 32 | 1007.7 |
| 20260508105452 | 96 | 270 | 0.0 | 0.9 | 0.00 | 0.00 | 0.00 | 32 | 1007.5 |
| 20260508104905 | 96 | 270 | 0.0 | 1.7 | 0.00 | 0.00 | 0.00 | 31 | 1007.6 |
| 20260508104318 | 96 | 270 | 0.0 | 0.9 | 0.00 | 0.00 | 0.00 | 31 | 1007.5 |
| 20260508103731 | 96 | 270 | 0.0 | 0.9 | 0.00 | 0.00 | 0.00 | 31 | 1007.5 |
| 20260508103144 | 97 | 0 | 0.0 | 0.9 | 0.00 | 0.00 | 0.00 | 31 | 1007.5 |
| 20260508102557 | 97 | 0 | 0.0 | 2.6 | 0.00 | 0.00 | 0.00 | 30 | 1007.5 |
| 20260508102010 | 97 | 225 | 0.0 | 2.6 | 0.00 | 0.00 | 0.00 | 30 | 1007.4 |
| 20260508101423 | 97 | 315 | 0.0 | 1.7 | 0.00 | 0.00 | 0.00 | 29 | 1007.4 |
| 20260508100836 | 98 | 270 | 0.0 | 1.7 | 0.00 | 0.00 | 0.00 | 29 | 1007.2 |
| 20260508100249 | 98 | 0 | 0.0 | 1.7 | 0.00 | 0.00 | 0.00 | 29 | 1007.1 |
| 20260508095702 | 98 | 315 | 0.0 | 1.7 | 0.00 | 0.00 | 0.00 | 28 | 1007.0 |
| 20260508095115 | 98 | 270 | 0.0 | 1.7 | 0.00 | 0.00 | 0.00 | 28 | 1007.0 |
| 20260508094528 | 99 | 315 | 0.0 | 2.6 | 0.00 | 0.00 | 0.00 | 27 | 1006.9 |
| 20260508093941 | 99 | 0 | 0.0 | 1.7 | 0.00 | 0.00 | 0.00 | 26 | 1006.8 |
| 20260508093354 | 99 | 270 | 0.0 | 2.6 | 0.00 | 0.00 | 0.00 | 26 | 1006.8 |
| 20260508092807 | 100 | 315 | 0.0 | 1.7 | 0.00 | 0.00 | 0.00 | 26 | 1006.8 |
| 20260508092220 | 100 | 270 | 0.0 | 1.7 | 0.00 | 0.00 | 0.00 | 25 | 1006.7 |
| 20260508091633 | 100 | 270 | 0.0 | 2.6 | 0.00 | 0.00 | 0.00 | 25 | 1006.7 |
| 20260508091046 | 101 | 315 | 0.0 | 2.6 | 0.00 | 0.00 | 0.00 | 25 | 1006.6 |
| 20260508090459 | 101 | 315 | 0.0 | 2.6 | 0.00 | 0.00 | 0.00 | 25 | 1006.5 |
| 20260508085912 | 102 | 0 | 0.0 | 2.6 | 0.00 | 0.00 | 0.00 | 25 | 1006.6 |
| 20260508085325 | 102 | 0 | 0.0 | 2.6 | 0.00 | 0.00 | 0.00 | 25 | 1006.5 |
| 20260508084737 | 102 | 135 | 0.0 | 2.6 | 0.00 | 0.00 | 0.00 | 25 | 1006.6 |
| 20260508084151 | 102 | 270 | 0.0 | 2.6 | 0.00 | 0.00 | 0.00 | 24 | 1006.5 |
| 20260508083603 | 103 | 135 | 0.0 | 2.6 | 0.00 | 0.00 | 0.00 | 24 | 1006.4 |
| 20260508083016 | 103 | 45 | 0.0 | 2.6 | 0.00 | 0.00 | 0.00 | 25 | 1006.3 |
| 20260508082429 | 104 | 225 | 0.0 | 2.6 | 0.00 | 0.00 | 0.00 | 25 | 1006.3 |
| 20260508081842 | 104 | 0 | 0.0 | 2.6 | 0.00 | 0.00 | 0.00 | 24 | 1006.3 |
| 20260508081255 | 104 | 270 | 0.0 | 2.6 | 0.00 | 0.00 | 0.00 | 24 | 1006.1 |
| 20260508080708 | 105 | 45 | 0.0 | 2.6 | 0.00 | 0.00 | 0.00 | 24 | 1006.1 |